Regional Weather Roundup
Issued by NWS

Home | Current Version | Previous Version | Text Only | Print | Product List | Glossary On
Versions: 1 2 3 4 5 6 7 8 9 10 11 12 13 14 15 16 17 18 19 20 21 22 23 24 25 26 27 28 29 30 31 32 33 34 35 36 37 38 39 40 41 42 43 44 45 46 47 48 49 50
000
ASUS44 KJAN 300320
RWRMS

MISSISSIPPI HOURLY WEATHER ROUNDUP
NATIONAL WEATHER SERVICE JACKSON MS
1000 PM CDT THU SEP 29 2016

NOTE: "FAIR: INDICATES FEW OR NO CLOUDS BELOW 12,000 FEET WITH NO
SIGNIFICANT WEATHER AND/OR OBSTRUCTIONS TO VISIBILITY.

MSZ001>002-007>008-010>013-018>021-025>028-034>036-300400-
NORTHWEST MISSISSIPPI

CITY           SKY/WX    TMP DP  RH WIND       PRES   REMARKS
BATESVILLE     FAIR      56  53  87 CALM      30.16S
CLARKSDALE       N/A     61  54  77 CALM      30.16S
CLEVELAND      MOCLDY    67  53  59 N5        30.15R
GREENWOOD      MOCLDY    61  54  77 CALM      30.14R
GREENVILLE     CLOUDY    68  53  58 NW5       30.14S
OXFORD         FAIR      59  50  72 CALM      30.17S
TUNICA         CLEAR     55  52  88 N5        30.16S
WINONA         FAIR      59  53  78 CALM      30.14R
$$

MSZ003>006-009-014>017-022>024-029>033-037>039-300400-
NORTHEAST MISSISSIPPI

CITY           SKY/WX    TMP DP  RH WIND       PRES   REMARKS
COLUMBUS AFB   CLEAR     64  53  66 N7        30.12R
CORINTH          N/A     54  52  94 CALM      30.14S
GOLDN TRIANGLE CLEAR     63  46  55 N6        30.12S
STARKVILLE     FAIR      59  52  77 CALM      30.14R
TUPELO         CLEAR     58  50  75 N7        30.14S
$$

MSZ040-058-300400-
CENTRAL MISSISSIPPI

CITY           SKY/WX    TMP DP  RH WIND       PRES   REMARKS
JACKSON INTL   CLEAR     60  50  69 CALM      30.13R
JACKSON HAWKNS CLEAR     64  49  57 NW3       30.14S
MADISON        FAIR      57  50  77 CALM      30.14R
MERIDIAN KEY   CLEAR     62  52  69 S3        30.12R
MERIDIAN NAS   PTCLDY    66  48  52 NW3       30.12R
VICKSBURG VKS  MOCLDY    57  55  94 CALM      30.15R
$$

MSZ059>079-300400-
SOUTH MISSISSIPPI

CITY           SKY/WX    TMP DP  RH WIND       PRES   REMARKS
BROOKHAVEN     FAIR     N/A N/A N/A CALM      30.16R
HATTIESBURG    CLEAR     60  55  83 NW5       30.12R
LAUREL         FAIR      58  54  84 N6        30.12R
MCCOMB         CLEAR     61  53  75 NW3       30.15R
NATCHEZ        CLEAR     57  52  82 CALM      30.16S
PINE BELT      CLEAR     63  48  59 NW6       30.13R
$$

MSZ080>082-300400-
COASTAL MISSISSIPPI

CITY           SKY/WX    TMP DP  RH WIND       PRES   REMARKS
BILOXI         CLEAR     70  55  58 N8        30.09R
PASCAGOULA     CLEAR     64  57  78 N3        30.09R
GULFPORT       CLEAR     67  56  67 NW6       30.09R
$$

LAZ007>009-015>016-023>026-300400-
NORTHEAST LOUISIANA

CITY           SKY/WX    TMP DP  RH WIND       PRES   REMARKS
BASTROP        FAIR      58  55  88 CALM      30.18R
TALLULAH/VBURG CLEAR     59  51  75 NW5       30.16R
$$



USA.gov is the U.S. government's official web portal to all federal, state and local government web resources and services.